date,time,SUV Intensity [MED/Hr],UV Index,Daily total [MED],Since Last [MED]
09/05/2023,00:01:33,0.000,0.0,0.0,0.0
09/05/2023,00:02:33,0.000,0.0,0.0,0.0
09/05/2023,00:03:33,0.000,0.0,0.0,0.0
09/05/2023,00:04:33,0.001,0.0,0.0,0.0
09/05/2023,00:05:33,0.000,0.0,0.0,0.0
09/05/2023,00:06:33,-0.001,0.0,0.0,0.0
09/05/2023,00:07:33,0.001,0.0,0.0,0.0
09/05/2023,00:08:33,-0.000,0.0,0.0,0.0
09/05/2023,00:09:33,0.001,0.0,0.0,0.0
09/05/2023,00:10:33,0.000,0.0,0.0,0.0
09/05/2023,00:11:33,0.001,0.0,0.0,0.0
09/05/2023,00:12:33,0.000,0.0,0.0,0.0
09/05/2023,00:13:33,0.000,0.0,0.0,0.0
09/05/2023,00:14:33,0.000,0.0,0.0,0.0
09/05/2023,00:15:33,-0.000,0.0,0.0,0.0
09/05/2023,00:16:33,0.000,0.0,0.0,0.0
09/05/2023,00:17:33,0.000,0.0,0.0,0.0
09/05/2023,00:18:33,-0.000,0.0,0.0,0.0
09/05/2023,00:19:33,0.000,0.0,0.0,0.0
09/05/2023,00:20:33,0.000,0.0,0.0,0.0
09/05/2023,00:21:33,0.000,0.0,0.0,0.0
09/05/2023,00:22:33,0.002,0.0,0.0,0.0
09/05/2023,00:23:33,0.000,0.0,0.0,0.0
09/05/2023,00:24:33,0.000,0.0,0.0,0.0
09/05/2023,00:25:33,0.000,0.0,0.0,0.0
09/05/2023,00:26:34,0.000,0.0,0.0,0.0
09/05/2023,00:27:33,0.000,0.0,0.0,0.0
09/05/2023,00:28:33,0.000,0.0,0.0,0.0
09/05/2023,00:29:33,0.000,0.0,0.0,0.0
09/05/2023,00:30:32,0.000,0.0,0.0,0.0
09/05/2023,00:31:33,-0.001,0.0,0.0,0.0
09/05/2023,00:32:33,0.001,0.0,0.0,0.0
09/05/2023,00:33:33,-0.000,0.0,0.0,0.0
09/05/2023,00:34:33,0.001,0.0,0.0,0.0
09/05/2023,00:35:33,-0.000,0.0,0.0,0.0
09/05/2023,00:36:33,0.000,0.0,0.0,0.0
09/05/2023,00:37:34,0.000,0.0,0.0,0.0
09/05/2023,00:38:33,0.000,0.0,0.0,0.0
09/05/2023,00:39:34,0.000,0.0,0.0,0.0
09/05/2023,00:40:34,0.000,0.0,0.0,0.0
09/05/2023,00:41:33,0.001,0.0,0.0,0.0
09/05/2023,00:42:33,-0.000,0.0,0.0,0.0
09/05/2023,00:43:33,0.000,0.0,0.0,0.0
09/05/2023,00:44:33,0.001,0.0,0.0,0.0
09/05/2023,00:45:33,-0.000,0.0,0.0,0.0
09/05/2023,00:46:33,0.000,0.0,0.0,0.0
09/05/2023,00:47:33,-0.001,0.0,0.0,0.0
09/05/2023,00:48:33,-0.001,0.0,0.0,0.0
09/05/2023,00:49:33,0.000,0.0,0.0,0.0
09/05/2023,00:50:33,0.000,0.0,0.0,0.0
09/05/2023,00:51:33,-0.001,0.0,0.0,0.0
09/05/2023,00:52:33,0.000,0.0,0.0,0.0
09/05/2023,00:53:33,0.001,0.0,0.0,0.0
09/05/2023,00:54:33,0.000,0.0,0.0,0.0
09/05/2023,00:56:02,0.001,0.0,0.0,0.0
09/05/2023,00:57:34,0.000,0.0,0.0,0.0
09/05/2023,00:58:33,0.000,0.0,0.0,0.0
09/05/2023,00:59:33,0.001,0.0,0.0,0.0
09/05/2023,01:00:33,-0.001,0.0,0.0,0.0
09/05/2023,01:01:34,0.000,0.0,0.0,0.0
09/05/2023,01:02:34,0.000,0.0,0.0,0.0
09/05/2023,01:03:33,0.000,0.0,0.0,0.0
09/05/2023,01:04:33,0.000,0.0,0.0,0.0
09/05/2023,01:05:33,0.000,0.0,0.0,0.0
09/05/2023,01:06:33,0.001,0.0,0.0,0.0
09/05/2023,01:07:33,0.000,0.0,0.0,0.0
09/05/2023,01:08:34,0.000,0.0,0.0,0.0
09/05/2023,01:09:34,0.001,0.0,0.0,0.0
09/05/2023,01:10:33,-0.000,0.0,0.0,0.0
09/05/2023,01:11:33,0.000,0.0,0.0,0.0
09/05/2023,01:12:33,0.000,0.0,0.0,0.0
09/05/2023,01:13:34,0.000,0.0,0.0,0.0
09/05/2023,01:14:34,0.000,0.0,0.0,0.0
09/05/2023,01:15:33,0.000,0.0,0.0,0.0
09/05/2023,01:16:33,0.001,0.0,0.0,0.0
09/05/2023,01:17:34,-0.001,0.0,0.0,0.0
09/05/2023,01:18:34,0.000,0.0,0.0,0.0
09/05/2023,01:19:33,0.000,0.0,0.0,0.0
09/05/2023,01:20:33,0.001,0.0,0.0,0.0
09/05/2023,01:21:33,-0.000,0.0,0.0,0.0
09/05/2023,01:22:33,0.000,0.0,0.0,0.0
09/05/2023,01:23:33,0.000,0.0,0.0,0.0
09/05/2023,01:24:33,0.000,0.0,0.0,0.0
09/05/2023,01:25:33,0.001,0.0,0.0,0.0
09/05/2023,01:26:33,0.000,0.0,0.0,0.0
09/05/2023,01:27:33,0.000,0.0,0.0,0.0
09/05/2023,01:28:33,0.000,0.0,0.0,0.0
09/05/2023,01:29:33,0.000,0.0,0.0,0.0
09/05/2023,01:30:33,0.000,0.0,0.0,0.0
09/05/2023,01:31:33,0.000,0.0,0.0,0.0
09/05/2023,01:32:33,0.000,0.0,0.0,0.0
09/05/2023,01:33:33,0.000,0.0,0.0,0.0
09/05/2023,01:34:34,-0.001,0.0,0.0,0.0
09/05/2023,01:35:33,0.000,0.0,0.0,0.0
09/05/2023,01:36:33,-0.001,0.0,0.0,0.0
09/05/2023,01:37:33,0.000,0.0,0.0,0.0
09/05/2023,01:38:33,-0.000,0.0,0.0,0.0
09/05/2023,01:39:33,-0.001,0.0,0.0,0.0
09/05/2023,01:40:33,0.001,0.0,0.0,0.0
09/05/2023,01:41:33,0.000,0.0,0.0,0.0
09/05/2023,01:42:33,0.000,0.0,0.0,0.0
09/05/2023,01:43:33,0.000,0.0,0.0,0.0
09/05/2023,01:44:33,0.000,0.0,0.0,0.0
09/05/2023,01:45:33,0.000,0.0,0.0,0.0
09/05/2023,01:46:33,0.001,0.0,0.0,0.0
09/05/2023,01:47:33,0.001,0.0,0.0,0.0
09/05/2023,01:48:33,0.000,0.0,0.0,0.0
09/05/2023,01:49:32,0.000,0.0,0.0,0.0
09/05/2023,01:50:56,0.000,0.0,0.0,0.0
09/05/2023,01:52:33,0.001,0.0,0.0,0.0
09/05/2023,01:53:33,0.000,0.0,0.0,0.0
09/05/2023,01:54:34,0.000,0.0,0.0,0.0
09/05/2023,01:55:33,0.000,0.0,0.0,0.0
09/05/2023,01:56:33,0.000,0.0,0.0,0.0
09/05/2023,01:57:33,0.000,0.0,0.0,0.0
09/05/2023,01:58:34,0.000,0.0,0.0,0.0
09/05/2023,01:59:34,0.000,0.0,0.0,0.0
09/05/2023,02:00:33,0.001,0.0,0.0,0.0
09/05/2023,02:01:33,0.001,0.0,0.0,0.0
09/05/2023,02:02:34,-0.000,0.0,0.0,0.0
09/05/2023,02:03:34,0.000,0.0,0.0,0.0
09/05/2023,02:04:33,-0.000,0.0,0.0,0.0
09/05/2023,02:05:34,0.000,0.0,0.0,0.0
09/05/2023,02:06:33,0.000,0.0,0.0,0.0
09/05/2023,02:07:33,0.000,0.0,0.0,0.0
09/05/2023,02:08:33,0.000,0.0,0.0,0.0
09/05/2023,02:09:33,0.001,0.0,0.0,0.0
09/05/2023,02:10:33,0.000,0.0,0.0,0.0
09/05/2023,02:11:33,0.000,0.0,0.0,0.0
09/05/2023,02:12:33,0.001,0.0,0.0,0.0
09/05/2023,02:13:33,0.000,0.0,0.0,0.0
09/05/2023,02:14:34,0.000,0.0,0.0,0.0
09/05/2023,02:15:34,-0.000,0.0,0.0,0.0
09/05/2023,02:16:33,0.000,0.0,0.0,0.0
09/05/2023,02:17:33,0.000,0.0,0.0,0.0
09/05/2023,02:18:33,0.000,0.0,0.0,0.0
09/05/2023,02:19:33,0.001,0.0,0.0,0.0
09/05/2023,02:20:34,0.000,0.0,0.0,0.0
09/05/2023,02:21:34,0.001,0.0,0.0,0.0
09/05/2023,02:22:33,0.000,0.0,0.0,0.0
09/05/2023,02:23:33,0.000,0.0,0.0,0.0
09/05/2023,02:24:33,0.000,0.0,0.0,0.0
09/05/2023,02:25:33,0.000,0.0,0.0,0.0
09/05/2023,02:26:33,0.000,0.0,0.0,0.0
09/05/2023,02:27:33,0.001,0.0,0.0,0.0
09/05/2023,02:28:33,0.000,0.0,0.0,0.0
09/05/2023,02:29:34,0.001,0.0,0.0,0.0
09/05/2023,02:30:33,0.000,0.0,0.0,0.0
09/05/2023,02:31:33,0.000,0.0,0.0,0.0
09/05/2023,02:32:34,0.000,0.0,0.0,0.0
09/05/2023,02:33:34,0.001,0.0,0.0,0.0
09/05/2023,02:34:33,-0.001,0.0,0.0,0.0
09/05/2023,02:35:33,-0.000,0.0,0.0,0.0
09/05/2023,02:36:33,0.001,0.0,0.0,0.0
09/05/2023,02:37:33,0.000,0.0,0.0,0.0
09/05/2023,02:38:33,-0.000,0.0,0.0,0.0
09/05/2023,02:39:34,0.000,0.0,0.0,0.0
09/05/2023,02:40:33,0.000,0.0,0.0,0.0
09/05/2023,02:41:33,0.001,0.0,0.0,0.0
09/05/2023,02:42:33,0.001,0.0,0.0,0.0
09/05/2023,02:43:33,-0.001,0.0,0.0,0.0
09/05/2023,02:44:33,0.000,0.0,0.0,0.0
09/05/2023,02:45:33,0.001,0.0,0.0,0.0
09/05/2023,02:46:34,0.001,0.0,0.0,0.0
09/05/2023,02:47:33,0.000,0.0,0.0,0.0
09/05/2023,02:48:33,0.001,0.0,0.0,0.0
09/05/2023,02:49:34,-0.000,0.0,0.0,0.0
09/05/2023,02:50:34,0.000,0.0,0.0,0.0
09/05/2023,02:51:33,0.000,0.0,0.0,0.0
09/05/2023,02:52:33,0.000,0.0,0.0,0.0
09/05/2023,02:53:33,0.001,0.0,0.0,0.0
09/05/2023,02:54:33,0.001,0.0,0.0,0.0
09/05/2023,02:55:33,-0.000,0.0,0.0,0.0
09/05/2023,02:56:33,0.000,0.0,0.0,0.0
09/05/2023,02:57:33,0.000,0.0,0.0,0.0
09/05/2023,02:58:33,-0.000,0.0,0.0,0.0
09/05/2023,02:59:33,0.001,0.0,0.0,0.0
09/05/2023,03:00:33,0.000,0.0,0.0,0.0
09/05/2023,03:01:33,0.001,0.0,0.0,0.0
09/05/2023,03:02:33,0.001,0.0,0.0,0.0
09/05/2023,03:03:34,0.000,0.0,0.0,0.0
09/05/2023,03:04:33,0.001,0.0,0.0,0.0
09/05/2023,03:05:33,0.002,0.0,0.0,0.0
09/05/2023,03:06:34,0.000,0.0,0.0,0.0
09/05/2023,03:07:33,0.000,0.0,0.0,0.0
09/05/2023,03:08:34,-0.001,0.0,0.0,0.0
09/05/2023,03:09:33,0.000,0.0,0.0,0.0
09/05/2023,03:10:34,-0.000,0.0,0.0,0.0
09/05/2023,03:11:33,0.000,0.0,0.0,0.0
09/05/2023,03:12:34,0.000,0.0,0.0,0.0
09/05/2023,03:13:33,0.001,0.0,0.0,0.0
09/05/2023,03:14:34,0.000,0.0,0.0,0.0
09/05/2023,03:15:34,0.000,0.0,0.0,0.0
09/05/2023,03:16:33,-0.000,0.0,0.0,0.0
09/05/2023,03:17:33,0.000,0.0,0.0,0.0
09/05/2023,03:18:33,-0.000,0.0,0.0,0.0
09/05/2023,03:19:34,0.001,0.0,0.0,0.0
09/05/2023,03:20:34,-0.001,0.0,0.0,0.0
09/05/2023,03:21:33,0.000,0.0,0.0,0.0
09/05/2023,03:22:34,0.000,0.0,0.0,0.0
09/05/2023,03:23:33,0.000,0.0,0.0,0.0
09/05/2023,03:24:33,0.000,0.0,0.0,0.0
09/05/2023,03:25:33,0.001,0.0,0.0,0.0
09/05/2023,03:26:33,0.000,0.0,0.0,0.0
09/05/2023,03:27:34,0.001,0.0,0.0,0.0
09/05/2023,03:28:34,0.000,0.0,0.0,0.0
09/05/2023,03:29:34,-0.001,0.0,0.0,0.0
09/05/2023,03:30:34,0.001,0.0,0.0,0.0
09/05/2023,03:31:33,-0.000,0.0,0.0,0.0
09/05/2023,03:32:33,0.000,0.0,0.0,0.0
09/05/2023,03:33:34,0.000,0.0,0.0,0.0
09/05/2023,03:34:34,0.001,0.0,0.0,0.0
09/05/2023,03:35:34,0.000,0.0,0.0,0.0
09/05/2023,03:36:33,0.000,0.0,0.0,0.0
09/05/2023,03:37:33,-0.000,0.0,0.0,0.0
09/05/2023,03:38:34,-0.000,0.0,0.0,0.0
09/05/2023,03:39:33,0.000,0.0,0.0,0.0
09/05/2023,03:40:34,0.001,0.0,0.0,0.0
09/05/2023,03:41:33,0.000,0.0,0.0,0.0
09/05/2023,03:42:33,0.001,0.0,0.0,0.0
09/05/2023,03:43:33,0.002,0.0,0.0,0.0
09/05/2023,03:44:33,0.001,0.0,0.0,0.0
09/05/2023,03:45:34,-0.000,0.0,0.0,0.0
09/05/2023,03:46:33,0.000,0.0,0.0,0.0
09/05/2023,03:47:34,0.001,0.0,0.0,0.0
09/05/2023,03:48:34,-0.000,0.0,0.0,0.0
09/05/2023,03:49:34,0.001,0.0,0.0,0.0
09/05/2023,03:50:34,0.001,0.0,0.0,0.0
09/05/2023,03:51:33,-0.000,0.0,0.0,0.0
09/05/2023,03:52:33,0.001,0.0,0.0,0.0
09/05/2023,03:53:34,0.002,0.0,0.0,0.0
09/05/2023,03:54:34,0.001,0.0,0.0,0.0
09/05/2023,03:55:34,0.001,0.0,0.0,0.0
09/05/2023,03:56:33,0.000,0.0,0.0,0.0
09/05/2023,03:57:33,0.000,0.0,0.0,0.0
09/05/2023,03:58:33,0.001,0.0,0.0,0.0
09/05/2023,03:59:33,0.002,0.0,0.0,0.0
09/05/2023,04:00:33,0.001,0.0,0.0,0.0
09/05/2023,04:01:34,0.001,0.0,0.0,0.0
09/05/2023,04:02:33,0.000,0.0,0.0,0.0
09/05/2023,04:03:34,0.001,0.0,0.0,0.0
09/05/2023,04:04:34,0.000,0.0,0.0,0.0
09/05/2023,04:05:33,0.001,0.0,0.0,0.0
09/05/2023,04:06:33,0.001,0.0,0.0,0.0
09/05/2023,04:07:33,0.001,0.0,0.0,0.0
09/05/2023,04:08:33,0.001,0.0,0.0,0.0
09/05/2023,04:09:33,0.002,0.0,0.0,0.0
09/05/2023,04:10:33,0.001,0.0,0.0,0.0
09/05/2023,04:11:33,0.000,0.0,0.0,0.0
09/05/2023,04:12:33,0.003,0.0,0.0,0.0
09/05/2023,04:13:33,0.002,0.0,0.0,0.0
09/05/2023,04:14:33,0.003,0.0,0.0,0.0
09/05/2023,04:15:34,0.002,0.0,0.0,0.0
09/05/2023,04:16:33,0.003,0.0,0.0,0.0
09/05/2023,04:17:34,0.002,0.0,0.0,0.0
09/05/2023,04:18:34,0.002,0.0,0.0,0.0
09/05/2023,04:19:33,0.002,0.0,0.0,0.0
09/05/2023,04:20:33,0.003,0.0,0.0,0.0
09/05/2023,04:21:33,0.003,0.0,0.0,0.0
09/05/2023,04:22:33,0.003,0.0,0.0,0.0
09/05/2023,04:23:34,0.002,0.0,0.0,0.0
09/05/2023,04:24:34,0.003,0.0,0.0,0.0
09/05/2023,04:25:34,0.003,0.0,0.0,0.0
09/05/2023,04:26:33,0.003,0.0,0.0,0.0
09/05/2023,04:27:34,0.003,0.0,0.0,0.0
09/05/2023,04:28:33,0.004,0.0,0.0,0.0
09/05/2023,04:29:34,0.004,0.0,0.0,0.0
09/05/2023,04:30:34,0.004,0.0,0.0,0.0
09/05/2023,04:31:34,0.004,0.0,0.0,0.0
09/05/2023,04:32:34,0.004,0.0,0.0,0.0
09/05/2023,04:33:34,0.004,0.0,0.0,0.0
09/05/2023,04:34:34,0.005,0.0,0.0,0.0
09/05/2023,04:35:34,0.005,0.0,0.0,0.0
09/05/2023,04:36:34,0.004,0.0,0.0,0.0
09/05/2023,04:37:34,0.005,0.0,0.0,0.0
09/05/2023,04:38:34,0.005,0.0,0.0,0.0
09/05/2023,04:39:34,0.005,0.0,0.0,0.0
09/05/2023,04:40:33,0.006,0.0,0.0,0.0
09/05/2023,04:41:34,0.005,0.0,0.0,0.0
09/05/2023,04:42:34,0.006,0.0,0.0,0.0
09/05/2023,04:43:33,0.005,0.0,0.0,0.0
09/05/2023,04:44:33,0.007,0.0,0.0,0.0
09/05/2023,04:45:33,0.007,0.0,0.0,0.0
09/05/2023,04:46:33,0.006,0.0,0.0,0.0
09/05/2023,04:47:34,0.007,0.0,0.001,0.001
09/05/2023,04:48:33,0.007,0.0,0.001,0.0
09/05/2023,04:49:33,0.007,0.0,0.001,0.0
09/05/2023,04:50:33,0.007,0.0,0.001,0.0
09/05/2023,04:51:33,0.008,0.0,0.001,0.0
09/05/2023,04:52:34,0.008,0.0,0.001,0.0
09/05/2023,04:53:34,0.007,0.0,0.001,0.0
09/05/2023,04:54:34,0.008,0.0,0.001,0.0
09/05/2023,04:55:33,0.008,0.0,0.002,0.001
09/05/2023,04:56:34,0.010,0.0,0.002,0.0
09/05/2023,04:57:33,0.009,0.0,0.002,0.0
09/05/2023,04:58:34,0.009,0.0,0.002,0.0
09/05/2023,04:59:34,0.010,0.0,0.002,0.0
09/05/2023,05:00:33,0.011,0.0,0.002,0.0
09/05/2023,05:01:34,0.010,0.0,0.003,0.001
09/05/2023,05:02:33,0.010,0.0,0.003,0.0
09/05/2023,05:03:34,0.011,0.0,0.003,0.0
09/05/2023,05:04:34,0.011,0.0,0.003,0.0
09/05/2023,05:05:34,0.011,0.0,0.003,0.0
09/05/2023,05:06:34,0.012,0.0,0.003,0.0
09/05/2023,05:07:33,0.012,0.0,0.004,0.001
09/05/2023,05:08:33,0.012,0.0,0.004,0.0
09/05/2023,05:09:34,0.014,0.0,0.004,0.0
09/05/2023,05:10:34,0.013,0.0,0.004,0.0
09/05/2023,05:11:34,0.012,0.0,0.005,0.001
09/05/2023,05:12:33,0.013,0.0,0.005,0.0
09/05/2023,05:13:34,0.014,0.0,0.005,0.0
09/05/2023,05:14:34,0.014,0.0,0.005,0.0
09/05/2023,05:15:33,0.015,0.0,0.005,0.0
09/05/2023,05:16:33,0.015,0.0,0.006,0.001
09/05/2023,05:17:34,0.017,0.0,0.006,0.0
09/05/2023,05:18:33,0.018,0.0,0.006,0.0
09/05/2023,05:19:33,0.018,0.0,0.007,0.001
09/05/2023,05:20:33,0.018,0.0,0.007,0.0
09/05/2023,05:21:34,0.018,0.0,0.007,0.0
09/05/2023,05:22:34,0.019,0.0,0.007,0.0
09/05/2023,05:23:34,0.019,0.0,0.008,0.001
09/05/2023,05:24:33,0.023,0.0,0.008,0.0
09/05/2023,05:25:33,0.022,0.0,0.009,0.001
09/05/2023,05:26:33,0.023,0.0,0.009,0.0
09/05/2023,05:27:33,0.024,0.0,0.009,0.0
09/05/2023,05:28:34,0.024,0.0,0.01,0.001
09/05/2023,05:29:33,0.024,0.0,0.01,0.0
09/05/2023,05:30:34,0.025,0.0,0.01,0.0
09/05/2023,05:31:34,0.028,0.0,0.011,0.001
09/05/2023,05:32:34,0.029,0.0,0.011,0.0
09/05/2023,05:33:33,0.028,0.0,0.012,0.001
09/05/2023,05:34:33,0.028,0.0,0.012,0.0
09/05/2023,05:35:34,0.027,0.0,0.013,0.001
09/05/2023,05:36:34,0.023,0.0,0.013,0.0
09/05/2023,05:37:34,0.021,0.0,0.014,0.001
09/05/2023,05:38:34,0.022,0.0,0.014,0.0
09/05/2023,05:39:34,0.024,0.0,0.014,0.0
09/05/2023,05:40:34,0.025,0.0,0.015,0.001
09/05/2023,05:41:34,0.024,0.0,0.015,0.0
09/05/2023,05:42:34,0.023,0.0,0.016,0.001
09/05/2023,05:43:33,0.028,0.0,0.016,0.0
09/05/2023,05:44:33,0.028,0.0,0.016,0.0
09/05/2023,05:45:34,0.028,0.0,0.017,0.001
09/05/2023,05:46:34,0.031,0.0,0.017,0.0
09/05/2023,05:47:34,0.032,0.0,0.018,0.001
09/05/2023,05:48:34,0.030,0.0,0.018,0.0
09/05/2023,05:49:33,0.032,0.0,0.019,0.001
09/05/2023,05:50:33,0.035,0.0,0.02,0.001
09/05/2023,05:51:33,0.035,0.0,0.02,0.0
09/05/2023,05:52:33,0.034,0.0,0.021,0.001
09/05/2023,05:53:34,0.037,0.0,0.021,0.0
09/05/2023,05:54:34,0.036,0.0,0.022,0.001
09/05/2023,05:55:33,0.034,0.0,0.022,0.0
09/05/2023,05:56:34,0.035,0.0,0.023,0.001
09/05/2023,05:57:33,0.038,0.0,0.024,0.001
09/05/2023,05:58:34,0.038,0.0,0.024,0.0
09/05/2023,05:59:33,0.039,0.0,0.025,0.001
09/05/2023,06:00:33,0.042,0.0,0.026,0.001
09/05/2023,06:01:34,0.050,0.0,0.026,0.0
09/05/2023,06:02:34,0.057,0.0,0.027,0.001
09/05/2023,06:03:33,0.058,0.0,0.028,0.001
09/05/2023,06:04:33,0.062,0.0,0.029,0.001
09/05/2023,06:05:34,0.070,0.0,0.03,0.001
09/05/2023,06:06:35,0.079,0.0,0.032,0.002
09/05/2023,06:07:34,0.081,0.0,0.033,0.001
09/05/2023,06:08:34,0.076,0.0,0.034,0.001
09/05/2023,06:09:34,0.079,0.0,0.036,0.002
09/05/2023,06:10:33,0.087,0.0,0.037,0.001
09/05/2023,06:11:34,0.090,0.0,0.038,0.001
09/05/2023,06:12:34,0.090,0.0,0.04,0.002
09/05/2023,06:13:34,0.096,0.0,0.041,0.001
09/05/2023,06:14:33,0.105,0.0,0.043,0.002
09/05/2023,06:15:34,0.106,0.0,0.045,0.002
09/05/2023,06:16:34,0.097,0.0,0.047,0.002
09/05/2023,06:17:34,0.091,0.0,0.048,0.001
09/05/2023,06:18:34,0.079,0.0,0.05,0.002
09/05/2023,06:19:34,0.086,0.0,0.051,0.001
09/05/2023,06:20:34,0.082,0.0,0.052,0.001
09/05/2023,06:21:33,0.076,0.0,0.054,0.002
09/05/2023,06:22:34,0.071,0.0,0.055,0.001
09/05/2023,06:23:34,0.070,0.0,0.056,0.001
09/05/2023,06:24:34,0.067,0.0,0.057,0.001
09/05/2023,06:25:34,0.065,0.0,0.058,0.001
09/05/2023,06:26:33,0.063,0.0,0.059,0.001
09/05/2023,06:27:33,0.074,0.0,0.061,0.002
09/05/2023,06:28:34,0.079,0.0,0.062,0.001
09/05/2023,06:29:33,0.078,0.0,0.063,0.001
09/05/2023,06:30:34,0.082,0.0,0.064,0.001
09/05/2023,06:31:34,0.083,0.0,0.066,0.002
09/05/2023,06:32:34,0.085,0.0,0.067,0.001
09/05/2023,06:33:34,0.091,0.0,0.069,0.002
09/05/2023,06:34:34,0.107,0.0,0.07,0.001
09/05/2023,06:35:34,0.120,0.0,0.072,0.002
09/05/2023,06:36:34,0.122,0.0,0.074,0.002
09/05/2023,06:37:33,0.124,0.0,0.076,0.002
09/05/2023,06:38:33,0.127,0.0,0.078,0.002
09/05/2023,06:39:34,0.133,0.0,0.08,0.002
09/05/2023,06:40:34,0.158,0.0,0.083,0.003
09/05/2023,06:41:34,0.172,0.0,0.086,0.003
09/05/2023,06:42:33,0.173,0.0,0.089,0.003
09/05/2023,06:43:33,0.182,0.0,0.092,0.003
09/05/2023,06:44:34,0.179,0.0,0.095,0.003
09/05/2023,06:45:34,0.171,0.0,0.097,0.002
09/05/2023,06:46:34,0.160,0.0,0.1,0.003
09/05/2023,06:47:34,0.136,0.0,0.103,0.003
09/05/2023,06:48:31,0.122,0.0,0.105,0.002
09/05/2023,06:49:34,0.119,0.0,0.107,0.002
09/05/2023,06:50:34,0.127,0.0,0.109,0.002
09/05/2023,06:51:35,0.138,0.0,0.111,0.002
09/05/2023,06:52:34,0.137,0.0,0.113,0.002
09/05/2023,06:53:34,0.146,0.0,0.116,0.003
09/05/2023,06:54:33,0.161,0.0,0.118,0.002
09/05/2023,06:55:34,0.170,0.0,0.121,0.003
09/05/2023,06:56:34,0.174,0.0,0.124,0.003
09/05/2023,06:57:34,0.176,0.0,0.127,0.003
09/05/2023,06:58:34,0.163,0.0,0.13,0.003
09/05/2023,06:59:34,0.186,0.0,0.132,0.002
09/05/2023,07:00:34,0.202,0.0,0.136,0.004
09/05/2023,07:01:33,0.203,0.0,0.139,0.003
09/05/2023,07:02:33,0.203,0.0,0.142,0.003
09/05/2023,07:03:34,0.220,1.0,0.146,0.004
09/05/2023,07:04:34,0.234,1.0,0.15,0.004
09/05/2023,07:05:34,0.243,1.0,0.154,0.004
09/05/2023,07:06:33,0.230,1.0,0.158,0.004
09/05/2023,07:07:33,0.230,1.0,0.162,0.004
09/05/2023,07:08:34,0.236,1.0,0.165,0.003
09/05/2023,07:09:34,0.242,1.0,0.169,0.004
09/05/2023,07:10:34,0.260,1.0,0.174,0.005
09/05/2023,07:11:34,0.260,1.0,0.178,0.004
09/05/2023,07:12:34,0.242,1.0,0.182,0.004
09/05/2023,07:13:34,0.242,1.0,0.186,0.004
09/05/2023,07:14:33,0.236,1.0,0.19,0.004
09/05/2023,07:15:34,0.232,1.0,0.194,0.004
09/05/2023,07:16:34,0.236,1.0,0.198,0.004
09/05/2023,07:17:34,0.251,1.0,0.202,0.004
09/05/2023,07:18:33,0.251,1.0,0.206,0.004
09/05/2023,07:19:34,0.242,1.0,0.21,0.004
09/05/2023,07:20:34,0.242,1.0,0.214,0.004
09/05/2023,07:21:34,0.237,1.0,0.218,0.004
09/05/2023,07:22:34,0.228,1.0,0.222,0.004
09/05/2023,07:23:33,0.233,1.0,0.226,0.004
09/05/2023,07:24:33,0.240,1.0,0.23,0.004
09/05/2023,07:25:34,0.238,1.0,0.234,0.004
09/05/2023,07:26:33,0.226,1.0,0.238,0.004
09/05/2023,07:27:34,0.211,0.0,0.242,0.004
09/05/2023,07:28:34,0.196,0.0,0.245,0.003
09/05/2023,07:29:34,0.175,0.0,0.248,0.003
09/05/2023,07:30:34,0.173,0.0,0.251,0.003
09/05/2023,07:31:33,0.176,0.0,0.254,0.003
09/05/2023,07:32:34,0.185,0.0,0.257,0.003
09/05/2023,07:33:33,0.197,0.0,0.26,0.003
09/05/2023,07:34:34,0.200,0.0,0.263,0.003
09/05/2023,07:35:34,0.203,0.0,0.267,0.004
09/05/2023,07:36:34,0.182,0.0,0.27,0.003
09/05/2023,07:37:34,0.172,0.0,0.273,0.003
09/05/2023,07:38:34,0.178,0.0,0.276,0.003
09/05/2023,07:39:34,0.192,0.0,0.279,0.003
09/05/2023,07:40:34,0.202,0.0,0.282,0.003
09/05/2023,07:41:33,0.211,0.0,0.286,0.004
09/05/2023,07:42:34,0.210,0.0,0.289,0.003
09/05/2023,07:43:34,0.207,0.0,0.293,0.004
09/05/2023,07:44:34,0.212,0.0,0.296,0.003
09/05/2023,07:45:34,0.208,0.0,0.3,0.004
09/05/2023,07:46:34,0.206,0.0,0.303,0.003
09/05/2023,07:47:34,0.219,1.0,0.307,0.004
09/05/2023,07:48:34,0.227,1.0,0.31,0.003
09/05/2023,07:49:34,0.228,1.0,0.314,0.004
09/05/2023,07:50:34,0.213,0.0,0.318,0.004
09/05/2023,07:51:34,0.208,0.0,0.321,0.003
09/05/2023,07:52:34,0.215,0.0,0.325,0.004
09/05/2023,07:53:34,0.225,1.0,0.328,0.003
09/05/2023,07:54:34,0.236,1.0,0.332,0.004
09/05/2023,07:55:34,0.239,1.0,0.336,0.004
09/05/2023,07:56:34,0.250,1.0,0.34,0.004
09/05/2023,07:57:34,0.269,1.0,0.345,0.005
09/05/2023,07:58:34,0.292,1.0,0.349,0.004
09/05/2023,07:59:33,0.311,1.0,0.354,0.005
09/05/2023,08:00:34,0.318,1.0,0.36,0.006
09/05/2023,08:01:34,0.296,1.0,0.365,0.005
09/05/2023,08:02:33,0.281,1.0,0.369,0.004
09/05/2023,08:03:34,0.290,1.0,0.374,0.005
09/05/2023,08:04:34,0.299,1.0,0.379,0.005
09/05/2023,08:05:34,0.295,1.0,0.384,0.005
09/05/2023,08:06:34,0.287,1.0,0.389,0.005
09/05/2023,08:07:34,0.296,1.0,0.394,0.005
09/05/2023,08:08:33,0.330,1.0,0.399,0.005
09/05/2023,08:09:34,0.365,1.0,0.405,0.006
09/05/2023,08:10:33,0.361,1.0,0.411,0.006
09/05/2023,08:11:34,0.337,1.0,0.417,0.006
09/05/2023,08:12:34,0.312,1.0,0.422,0.005
09/05/2023,08:13:34,0.311,1.0,0.427,0.005
09/05/2023,08:14:34,0.343,1.0,0.433,0.006
09/05/2023,08:15:35,0.375,1.0,0.439,0.006
09/05/2023,08:16:34,0.366,1.0,0.445,0.006
09/05/2023,08:17:33,0.371,1.0,0.451,0.006
09/05/2023,08:18:34,0.375,1.0,0.457,0.006
09/05/2023,08:19:34,0.360,1.0,0.463,0.006
09/05/2023,08:20:33,0.334,1.0,0.469,0.006
09/05/2023,08:21:34,0.300,1.0,0.474,0.005
09/05/2023,08:22:34,0.293,1.0,0.479,0.005
09/05/2023,08:23:34,0.298,1.0,0.484,0.005
09/05/2023,08:24:34,0.270,1.0,0.489,0.005
09/05/2023,08:25:33,0.233,1.0,0.493,0.004
09/05/2023,08:26:33,0.215,0.0,0.497,0.004
09/05/2023,08:27:33,0.206,0.0,0.5,0.003
09/05/2023,08:28:34,0.205,0.0,0.504,0.004
09/05/2023,08:29:34,0.232,1.0,0.507,0.003
09/05/2023,08:30:34,0.294,1.0,0.512,0.005
09/05/2023,08:31:34,0.361,1.0,0.517,0.005
09/05/2023,08:32:33,0.405,1.0,0.524,0.007
09/05/2023,08:33:34,0.392,1.0,0.53,0.006
09/05/2023,08:34:34,0.360,1.0,0.537,0.007
09/05/2023,08:35:35,0.321,1.0,0.542,0.005
09/05/2023,08:36:34,0.298,1.0,0.548,0.006
09/05/2023,08:37:34,0.284,1.0,0.552,0.004
09/05/2023,08:38:34,0.283,1.0,0.557,0.005
09/05/2023,08:39:34,0.308,1.0,0.562,0.005
09/05/2023,08:40:34,0.345,1.0,0.567,0.005
09/05/2023,08:41:34,0.374,1.0,0.573,0.006
09/05/2023,08:42:34,0.388,1.0,0.58,0.007
09/05/2023,08:43:34,0.381,1.0,0.586,0.006
09/05/2023,08:44:34,0.373,1.0,0.593,0.007
09/05/2023,08:45:34,0.373,1.0,0.599,0.006
09/05/2023,08:46:34,0.394,1.0,0.605,0.006
09/05/2023,08:47:34,0.440,1.0,0.612,0.007
09/05/2023,08:48:34,0.464,1.0,0.62,0.008
09/05/2023,08:49:34,0.508,1.0,0.628,0.008
09/05/2023,08:50:34,0.581,1.0,0.637,0.009
09/05/2023,08:51:33,0.657,2.0,0.647,0.01
09/05/2023,08:52:34,0.712,2.0,0.659,0.012
09/05/2023,08:53:34,0.749,2.0,0.671,0.012
09/05/2023,08:54:33,0.769,2.0,0.684,0.013
09/05/2023,08:55:33,0.784,2.0,0.697,0.013
09/05/2023,08:56:34,0.757,2.0,0.71,0.013
09/05/2023,08:57:34,0.738,2.0,0.722,0.012
09/05/2023,08:58:34,0.712,2.0,0.734,0.012
09/05/2023,08:59:34,0.696,2.0,0.746,0.012
09/05/2023,09:00:34,0.669,2.0,0.757,0.011
09/05/2023,09:01:34,0.652,1.0,0.768,0.011
09/05/2023,09:02:34,0.651,1.0,0.779,0.011
09/05/2023,09:03:34,0.626,1.0,0.79,0.011
09/05/2023,09:04:34,0.600,1.0,0.8,0.01
09/05/2023,09:05:34,0.595,1.0,0.81,0.01
09/05/2023,09:06:34,0.608,1.0,0.82,0.01
09/05/2023,09:07:34,0.636,1.0,0.83,0.01
09/05/2023,09:08:34,0.663,2.0,0.841,0.011
09/05/2023,09:09:34,0.664,2.0,0.852,0.011
09/05/2023,09:10:34,0.663,2.0,0.863,0.011
09/05/2023,09:11:34,0.685,2.0,0.874,0.011
09/05/2023,09:12:34,0.691,2.0,0.886,0.012
09/05/2023,09:13:34,0.658,2.0,0.897,0.011
09/05/2023,09:14:34,0.590,1.0,0.908,0.011
09/05/2023,09:15:34,0.526,1.0,0.917,0.009
09/05/2023,09:16:33,0.476,1.0,0.925,0.008
09/05/2023,09:17:34,0.470,1.0,0.933,0.008
09/05/2023,09:18:34,0.484,1.0,0.941,0.008
09/05/2023,09:19:34,0.483,1.0,0.949,0.008
09/05/2023,09:20:34,0.458,1.0,0.957,0.008
09/05/2023,09:21:34,0.436,1.0,0.964,0.007
09/05/2023,09:22:34,0.435,1.0,0.972,0.008
09/05/2023,09:23:33,0.450,1.0,0.979,0.007
09/05/2023,09:24:34,0.473,1.0,0.987,0.008
09/05/2023,09:25:34,0.482,1.0,0.995,0.008
09/05/2023,09:26:34,0.483,1.0,1.003,0.008
09/05/2023,09:27:35,0.506,1.0,1.011,0.008
09/05/2023,09:28:33,0.559,1.0,1.02,0.009
09/05/2023,09:29:34,0.616,1.0,1.03,0.01
09/05/2023,09:30:33,0.656,2.0,1.04,0.01
09/05/2023,09:31:34,0.673,2.0,1.051,0.011
09/05/2023,09:32:34,0.678,2.0,1.063,0.012
09/05/2023,09:33:34,0.661,2.0,1.074,0.011
09/05/2023,09:34:34,0.621,1.0,1.084,0.01
09/05/2023,09:35:34,0.593,1.0,1.095,0.011
09/05/2023,09:36:34,0.593,1.0,1.104,0.009
09/05/2023,09:37:34,0.595,1.0,1.114,0.01
09/05/2023,09:38:34,0.589,1.0,1.124,0.01
09/05/2023,09:39:34,0.548,1.0,1.134,0.01
09/05/2023,09:40:34,0.514,1.0,1.143,0.009
09/05/2023,09:41:34,0.489,1.0,1.151,0.008
09/05/2023,09:42:34,0.470,1.0,1.159,0.008
09/05/2023,09:43:34,0.455,1.0,1.167,0.008
09/05/2023,09:44:34,0.439,1.0,1.174,0.007
09/05/2023,09:45:34,0.427,1.0,1.181,0.007
09/05/2023,09:46:34,0.414,1.0,1.188,0.007
09/05/2023,09:47:34,0.406,1.0,1.195,0.007
09/05/2023,09:48:34,0.396,1.0,1.202,0.007
09/05/2023,09:49:34,0.384,1.0,1.208,0.006
09/05/2023,09:50:34,0.362,1.0,1.214,0.006
09/05/2023,09:51:34,0.335,1.0,1.22,0.006
09/05/2023,09:52:34,0.312,1.0,1.226,0.006
09/05/2023,09:53:34,0.303,1.0,1.231,0.005
09/05/2023,09:54:34,0.310,1.0,1.236,0.005
09/05/2023,09:55:34,0.322,1.0,1.241,0.005
09/05/2023,09:56:34,0.326,1.0,1.246,0.005
09/05/2023,09:57:34,0.329,1.0,1.252,0.006
09/05/2023,09:58:34,0.347,1.0,1.258,0.006
09/05/2023,09:59:34,0.367,1.0,1.263,0.005
09/05/2023,10:00:34,0.368,1.0,1.27,0.007
09/05/2023,10:01:34,0.356,1.0,1.276,0.006